Date String (YYYY-MM-DD hh:mm:ss) UTC,Instrument flags,Ambient pressure (hPa),Sample flow (lpm),Bypass flow (lpm),Sample temperature (°C),Ambient temperature (°C),ASC tube jacket temperature (°C),LED temperature (°C),Box temperature (°C),Sample RH (%),Span deviation,Mass concentration (μg/m³),Mass concentration (μg/m³),Mass concentration (μg/m³)
DateTimeUTC,F1_M11,P_M11,Q1_M11,Q2_M11,T1_M11,T2_M11,T3_M11,T4_M11,T5_M11,U1_M11,ZSPAN_M11,X0_M11,X2_M11,X1_M11
2021-11-22 12:00:00,,0831.8,5.00,0.00,23.5,22.6,00.0,32.6,25.3,11.5,0000.0,0009.66,0004.44,0004.09
2021-11-22 12:01:00,,0831.7,4.99,0.00,23.5,22.6,00.0,32.5,25.2,11.6,0000.0,0009.58,0004.41,0004.04
2021-11-22 12:02:00,,0831.7,5.00,0.00,23.5,22.6,00.0,32.5,25.2,11.6,0000.0,0009.58,0004.34,0003.99
2021-11-22 12:03:00,,0831.7,5.01,0.00,23.5,22.6,00.0,32.5,25.2,11.5,0000.0,0009.44,0004.26,0003.93
2021-11-22 12:04:00,,0831.8,5.00,0.00,23.5,22.6,00.0,32.5,25.2,11.2,0000.0,0009.33,0004.20,0003.86
2021-11-22 12:05:00,,0831.9,4.99,0.00,23.5,22.6,00.0,32.5,25.2,11.1,0000.0,0009.73,0004.17,0003.81
2021-11-22 12:06:00,,0832.0,5.01,0.00,23.5,22.6,00.0,32.5,25.2,11.4,0000.0,0009.39,0004.15,0003.79
2021-11-22 12:07:00,,0831.9,4.99,0.00,23.5,22.6,00.0,32.5,25.2,11.5,0000.0,0008.95,0004.17,0003.80
2021-11-22 12:08:00,,0832.0,5.00,0.00,23.5,22.6,00.0,32.5,25.2,11.5,0000.0,0008.79,0004.18,0003.81
2021-11-22 12:09:00,,0831.9,5.01,0.00,23.5,22.6,00.0,32.5,25.2,11.1,0000.0,0007.92,0004.14,0003.80
2021-11-22 12:10:00,,0832.0,5.00,0.00,23.5,22.6,00.0,32.5,25.2,11.0,0000.0,0007.84,0004.10,0003.76
2021-11-22 12:11:00,,0831.9,5.00,0.00,23.5,22.6,00.0,32.5,25.2,10.9,0000.0,0008.04,0004.08,0003.75
2021-11-22 12:12:00,,0831.8,5.01,0.00,23.5,22.6,00.0,32.5,25.2,11.0,0000.0,0007.99,0004.03,0003.72
2021-11-22 12:13:00,,0831.8,4.99,0.00,23.4,22.6,00.0,32.5,25.1,11.0,0000.0,0007.92,0004.03,0003.71
2021-11-22 12:14:00,,0831.7,5.00,0.00,23.5,22.6,00.0,32.5,25.2,11.0,0000.0,0007.84,0004.03,0003.70
2021-11-22 12:15:00,,0831.8,4.99,0.00,23.4,22.6,00.0,32.5,25.2,10.8,0000.0,0007.79,0004.04,0003.69
2021-11-22 12:16:00,,0831.9,4.99,0.00,23.4,22.6,00.0,32.5,25.1,10.9,0000.0,0007.21,0004.07,0003.70
2021-11-22 12:17:00,,0831.9,5.00,0.00,23.4,22.6,00.0,32.5,25.1,11.0,0000.0,0006.91,0004.06,0003.70
2021-11-22 12:18:00,,0831.9,4.98,0.00,23.4,22.5,00.0,32.5,25.1,11.0,0000.0,0007.46,0004.05,0003.68
2021-11-22 12:19:00,,0831.9,5.00,0.00,23.4,22.5,00.0,32.4,25.1,10.9,0000.0,0007.98,0004.01,0003.66
2021-11-22 12:20:00,,0832.0,4.99,0.00,23.4,22.5,00.0,32.4,25.1,10.9,0000.0,0007.96,0003.99,0003.65
2021-11-22 12:21:00,,0832.0,5.00,0.00,23.4,22.5,00.0,32.4,25.1,10.9,0000.0,0007.91,0004.00,0003.66
2021-11-22 12:22:00,,0832.0,5.01,0.00,23.4,22.5,00.0,32.4,25.1,10.8,0000.0,0007.80,0004.03,0003.66
2021-11-22 12:23:00,,0831.9,5.00,0.00,23.4,22.5,00.0,32.4,25.1,10.8,0000.0,0008.17,0004.04,0003.66
2021-11-22 12:24:00,,0832.0,5.00,0.00,23.4,22.5,00.0,32.4,25.1,10.7,0000.0,0008.11,0004.02,0003.65
2021-11-22 12:25:00,,0832.1,4.99,0.00,23.4,22.5,00.0,32.4,25.1,10.6,0000.0,0008.16,0004.03,0003.65
2021-11-22 12:26:00,,0831.9,5.01,0.00,23.4,22.5,00.0,32.4,25.1,10.6,0000.0,0008.28,0004.03,0003.65
2021-11-22 12:27:00,,0831.9,4.99,0.00,23.4,22.5,00.0,32.4,25.1,10.7,0000.0,0008.22,0004.00,0003.64
2021-11-22 12:28:00,,0832.0,5.01,0.00,23.4,22.5,00.0,32.4,25.1,10.7,0000.0,0008.27,0004.00,0003.63
2021-11-22 12:29:00,,0832.0,5.01,0.00,23.4,22.5,00.0,32.4,25.1,10.7,0000.0,0007.85,0004.02,0003.62
2021-11-22 12:30:00,,0832.1,4.99,0.00,23.4,22.5,00.0,32.4,25.1,10.7,0000.0,0007.49,0004.01,0003.60
2021-11-22 12:31:00,,0832.1,5.01,0.00,23.4,22.5,00.0,32.4,25.1,10.7,0000.0,0007.63,0004.03,0003.60
2021-11-22 12:32:00,,0832.1,4.99,0.00,23.4,22.5,00.0,32.4,25.1,10.8,0000.0,0007.62,0004.03,0003.59
2021-11-22 12:33:00,,0832.0,5.00,0.00,23.4,22.5,00.0,32.4,25.1,10.7,0000.0,0007.58,0003.99,0003.58
2021-11-22 12:34:00,,0831.9,5.02,0.00,23.3,22.5,00.0,32.4,25.1,10.7,0000.0,0007.51,0003.99,0003.58
2021-11-22 12:35:00,,0832.0,5.01,0.00,23.3,22.5,00.0,32.4,25.1,10.8,0000.0,0007.70,0004.02,0003.60
2021-11-22 12:36:00,,0831.9,4.99,0.00,23.3,22.5,00.0,32.4,25.1,10.9,0000.0,0008.00,0004.02,0003.60
2021-11-22 12:37:00,,0831.9,5.02,0.00,23.3,22.5,00.0,32.4,25.1,10.9,0000.0,0008.05,0004.02,0003.60
2021-11-22 12:38:00,,0832.0,4.99,0.00,23.3,22.5,00.0,32.4,25.1,10.9,0000.0,0008.10,0004.04,0003.61
2021-11-22 12:39:00,,0832.0,5.00,0.00,23.3,22.5,00.0,32.4,25.1,10.9,0000.0,0008.15,0004.04,0003.61
2021-11-22 12:40:00,,0832.0,4.99,0.00,23.3,22.5,00.0,32.4,25.1,10.8,0000.0,0008.74,0004.00,0003.62
2021-11-22 12:41:00,,0832.0,5.01,0.00,23.3,22.4,00.0,32.4,25.1,10.8,0000.0,0009.06,0004.00,0003.63
2021-11-22 12:42:00,,0832.0,4.99,0.00,23.3,22.4,00.0,32.4,25.1,10.8,0000.0,0009.38,0004.03,0003.65
2021-11-22 12:43:00,,0832.0,5.01,0.00,23.3,22.5,00.0,32.4,25.1,10.8,0000.0,0009.44,0004.04,0003.66
2021-11-22 12:44:00,,0832.0,4.99,0.00,23.3,22.5,00.0,32.4,25.1,10.9,0000.0,0009.45,0004.05,0003.68
2021-11-22 12:45:00,,0832.0,5.01,0.00,23.3,22.5,00.0,32.4,25.1,10.9,0000.0,0009.26,0004.07,0003.69
2021-11-22 12:46:00,,0832.1,4.99,0.00,23.3,22.5,00.0,32.4,25.1,10.8,0000.0,0009.09,0004.05,0003.70
2021-11-22 12:47:00,,0832.1,5.00,0.00,23.3,22.5,00.0,32.4,25.1,10.9,0000.0,0009.11,0004.06,0003.71
2021-11-22 12:48:00,,0832.0,5.00,0.00,23.4,22.5,00.0,32.4,25.1,11.4,0000.0,0008.85,0004.08,0003.76
2021-11-22 12:49:00,,0831.9,5.00,0.00,23.3,22.5,00.0,32.4,25.1,11.2,0000.0,0009.11,0004.12,0003.80
2021-11-22 12:50:00,,0832.0,5.01,0.00,23.3,22.5,00.0,32.4,25.1,11.0,0000.0,0009.49,0004.18,0003.82
2021-11-22 12:51:00,,0832.0,4.99,0.00,23.3,22.5,00.0,32.4,25.1,11.0,0000.0,0008.89,0004.18,0003.83
2021-11-22 12:52:00,,0832.0,5.01,0.00,23.3,22.4,00.0,32.3,25.1,11.6,0000.0,0008.66,0004.25,0003.87
2021-11-22 12:53:00,,0832.0,5.00,0.00,23.3,22.4,00.0,32.3,25.0,11.6,0000.0,0008.24,0004.30,0003.91
2021-11-22 12:54:00,,0831.9,4.99,0.00,23.2,22.3,00.0,32.3,24.9,11.4,0000.0,0008.16,0004.31,0003.93
2021-11-22 12:55:00,,0832.0,5.00,0.00,23.2,22.3,00.0,32.3,24.9,11.4,0000.0,0008.20,0004.35,0003.95
2021-11-22 12:56:00,,0832.0,5.01,0.00,23.2,22.3,00.0,32.3,24.9,11.4,0000.0,0008.52,0004.37,0003.96
2021-11-22 12:57:00,,0831.9,5.01,0.00,23.2,22.3,00.0,32.3,24.9,11.4,0000.0,0009.01,0004.37,0003.97
2021-11-22 12:58:00,,0832.0,5.00,0.00,23.2,22.3,00.0,32.3,24.9,11.4,0000.0,0008.94,0004.41,0003.98
2021-11-22 12:59:00,,0832.0,5.00,0.00,23.2,22.3,00.0,32.2,24.9,11.4,0000.0,0008.97,0004.40,0003.97
